Location: Foulognes
(49.1413°N, 0.8183°W)
Time: 12:58:09
(UTC+00:00)

Cosmos 2151 - Pass Details

Date: 21 October 2019
Orbit: 582 x 601 km, 82.5° (Epoch: 21 November)

Event Time Altitude Azimuth Distance (km) Brightness Sun altitude
Rises 19:14:57 0° 352° (N) 2,863 6.7 -22.3°
Reaches altitude 10° 19:17:11 10° 354° (N) 1,956 5.8 -22.7°
Enters shadow 19:20:42 55° 21° (NNE) 732 3.3 -23.3°
